Wind_Speed
11 13 14 14 16 17 17 18 19 19 20 20 21 23 24 25 26 27 28 29 30 31 32 32 32 33 33 33 32 30 28 25 22 18 14 15 18 17 17 17 17 16 15 17 18 19 19 19 18 17 17 16 15 15 15 16 16 15 14 15 14 16 18 17 16 18 20 20 17 17 19 22 23 22 21 21 22 21 16 13 15 17 18 21 24 26 26 26
11 12 13 14 15 16 17 18 18 19 19 20 21 23 24 25 26 27 28 29 30 32 32 32 32 33 34 34 33 31 29 26 23 18 15 17 19 17 17 17 16 15 16 17 17 16 17 18 18 17 16 15 15 14 15 16 15 15 15 14 14 17 20 17 16 18 21 22 20 19 20 21 22 25 26 26 26 20 14 14 15 17 18 20 23 26 27 27
11 12 13 14 15 16 17 17 18 18 19 20 21 22 23 24 25 27 28 29 31 32 32 33 33 34 35 35 35 33 30 27 21 17 18 18 17 16 16 16 16 16 16 16 15 16 17 18 19 17 16 15 15 14 14 15 14 15 15 14 15 19 20 17 18 20 21 24 23 21 23 23 21 25 28 28 31 21 12 15 18 19 20 20 21 24 26 28
11 12 13 14 15 16 17 17 18 18 19 20 21 22 23 24 25 27 28 30 31 32 32 33 34 35 36 37 37 34 30 25 20 18 18 16 15 15 15 15 16 16 16 16 16 17 18 19 19 18 17 16 15 15 15 14 14 15 15 15 17 21 21 19 21 22 22 24 24 22 25 28 24 26 27 28 33 22 10 15 20 21 23 23 22 22 25 28
11 12 13 14 14 15 16 17 17 17 18 19 20 21 22 24 25 27 29 30 31 31 32 33 35 36 38 38 38 36 31 23 19 18 16 15 15 15 15 15 15 15 16 17 17 18 18 18 18 18 16 15 15 15 15 15 15 15 14 15 18 23 23 21 24 25 25 25 23 22 26 31 29 27 27 29 32 24 14 18 22 24 26 26 24 23 26 29
11 12 13 13 14 15 16 16 16 16 17 18 19 20 22 24 26 27 29 30 31 31 32 33 35 37 39 40 39 36 30 23 19 17 16 15 15 14 14 14 15 16 17 18 18 18 18 18 17 17 16 16 15 14 15 15 16 14 12 15 17 22 25 23 26 27 27 27 23 23 28 32 31 30 31 31 31 24 16 17 22 27 28 27 24 24 27 31
11 12 12 13 14 15 15 15 15 15 16 17 18 20 21 24 26 27 29 30 31 31 32 34 36 37 39 40 39 34 28 24 20 17 15 15 15 14 15 15 16 16 18 19 19 19 18 17 17 17 16 16 15 14 16 16 17 15 13 16 17 20 24 24 27 27 28 29 25 25 30 31 30 33 35 31 28 20 16 18 24 29 30 27 24 23 28 34
11 12 12 13 14 15 15 15 15 15 15 16 18 20 22 24 26 28 30 31 32 32 33 35 37 38 40 41 38 31 26 23 20 17 16 15 15 16 16 16 17 18 20 20 19 19 18 18 18 17 17 17 16 16 17 17 17 17 18 20 19 20 22 24 25 27 29 31 29 30 33 30 28 34 35 29 24 21 22 26 31 34 34 31 30 30 32 38
12 12 13 13 14 15 15 15 15 15 15 16 18 20 22 24 26 28 30 31 32 33 35 37 38 39 40 40 36 29 24 21 18 17 16 15 16 16 15 16 18 20 21 20 20 19 18 19 19 18 18 18 18 19 19 18 19 21 22 22 22 22 21 22 24 27 30 31 33 35 35 31 29 34 33 28 29 32 32 35 38 39 40 39 40 41 41 42
12 12 13 13 14 15 15 16 15 15 15 16 18 20 22 25 27 29 31 32 33 34 36 38 39 40 40 38 34 27 21 18 17 15 15 17 16 15 15 17 20 22 22 21 20 19 19 20 19 19 19 19 19 20 19 19 21 24 25 24 24 23 21 22 25 28 29 30 35 38 38 36 33 33 32 30 33 37 36 37 40 43 45 45 46 47 47 46
12 13 13 14 15 15 16 16 16 16 16 16 18 20 23 25 27 29 31 33 35 36 38 38 39 40 39 36 31 23 18 16 15 15 16 17 15 16 18 18 20 22 21 21 19 19 19 19 19 20 20 20 20 19 19 21 24 26 28 28 24 22 22 22 24 27 30 30 33 39 42 40 34 33 33 33 35 36 37 38 40 43 45 46 48 48 49 50
13 13 13 14 15 16 17 16 17 18 17 18 19 21 23 25 27 30 32 35 37 38 38 39 39 37 36 33 26 20 16 14 14 15 17 17 15 18 20 19 19 21 20 20 20 20 20 20 20 20 20 22 21 19 19 22 26 26 28 30 27 25 22 20 22 25 29 30 32 39 47 44 38 37 35 35 37 38 39 39 40 43 44 46 49 49 49 51
14 14 14 15 15 16 17 18 19 19 19 20 20 22 24 25 27 30 33 36 37 38 38 37 35 34 34 29 21 16 14 13 15 17 18 18 17 20 21 19 20 21 20 21 21 21 21 21 21 21 21 22 21 19 21 24 26 26 28 29 29 30 25 20 23 26 27 28 30 36 47 50 45 41 38 37 39 40 40 40 41 43 45 47 48 49 49 50
15 15 15 15 16 17 18 19 20 20 21 21 22 24 25 26 28 31 34 36 35 35 36 35 33 33 31 24 16 13 13 14 16 18 20 19 19 21 21 20 21 22 22 22 22 22 23 23 22 22 21 21 21 21 23 24 25 26 27 25 26 33 32 26 25 27 28 29 30 32 43 52 48 43 40 40 41 41 41 40 41 43 46 48 50 50 49 47
15 16 16 16 17 18 19 20 21 22 23 23 25 25 26 28 29 31 34 35 33 33 35 35 32 31 27 19 13 13 14 14 17 20 21 20 19 21 23 22 22 23 23 23 24 24 24 24 23 21 21 21 22 23 25 24 23 23 25 27 28 32 37 34 27 26 29 32 31 31 42 52 50 45 42 42 44 43 42 42 42 43 45 48 50 50 47 43
16 16 17 18 18 18 20 21 22 23 24 25 26 27 28 29 30 32 33 33 32 33 36 34 31 28 21 14 11 12 12 14 19 22 21 20 19 23 25 22 22 24 24 24 25 25 25 25 22 21 22 21 21 24 26 24 22 21 24 29 31 33 37 38 31 27 30 34 33 31 40 51 51 48 45 44 47 47 45 44 44 42 44 49 50 49 44 41
16 17 18 19 18 19 21 22 23 24 26 27 28 29 30 31 32 32 31 32 33 35 34 30 28 23 15 11 10 9 12 17 21 21 20 19 20 25 25 22 24 26 25 26 25 24 25 24 23 22 21 19 19 22 24 23 23 26 27 29 32 33 36 38 34 31 33 37 37 35 42 51 51 50 48 46 47 50 49 46 44 43 46 49 47 46 44 44
17 17 18 19 20 21 22 24 24 25 27 29 30 31 31 33 33 31 30 33 35 34 31 28 25 18 11 10 9 9 14 19 21 20 19 18 23 27 24 22 25 25 26 26 24 23 24 24 23 23 20 17 16 18 18 18 22 26 28 31 34 36 37 37 35 33 35 40 41 39 45 52 53 52 52 49 48 50 50 47 45 46 47 46 44 45 47 48
18 18 18 20 21 22 24 25 26 27 28 29 31 32 34 34 32 32 32 35 35 32 29 25 19 13 10 9 7 10 17 20 20 20 18 20 26 26 24 25 25 25 27 26 24 23 23 25 23 21 19 14 12 14 14 16 19 23 26 30 32 35 38 36 34 32 35 41 43 41 47 55 57 58 56 53 52 49 47 46 46 47 45 43 44 47 49 50
18 18 19 21 22 23 25 26 27 29 29 30 32 34 37 37 38 37 35 35 33 31 29 21 13 9 8 7 8 13 18 20 19 17 17 21 25 26 27 26 23 24 26 26 25 22 24 25 18 16 16 12 11 14 16 17 19 21 24 28 30 32 36 35 33 32 32 39 45 43 48 55 60 61 58 55 53 49 46 46 48 49 47 45 47 49 50 49
19 19 20 21 23 24 25 27 28 29 30 32 34 35 38 40 41 42 41 36 31 29 25 17 11 9 8 8 10 16 20 20 18 16 18 21 26 28 27 25 24 24 24 25 24 22 25 23 15 15 15 14 16 17 19 19 19 22 23 27 29 30 33 34 33 33 33 39 46 44 48 57 62 62 59 55 53 49 46 47 49 48 47 48 48 49 50 48
20 20 20 21 24 25 26 27 28 29 31 32 34 35 37 38 39 40 43 39 32 28 19 10 10 10 10 11 11 18 20 18 16 17 19 23 27 28 27 26 26 25 25 24 24 25 25 20 15 17 16 17 19 19 21 21 21 22 22 26 30 29 32 35 35 37 37 40 44 44 47 57 64 63 60 55 51 48 44 45 49 46 45 48 48 49 49 48
21 21 21 21 24 26 27 27 28 29 30 32 34 35 36 37 38 39 40 41 37 29 15 10 11 9 11 13 15 21 21 17 16 17 21 26 28 27 27 28 26 25 24 24 25 27 27 22 17 15 16 19 21 20 21 22 22 22 22 25 30 30 31 34 39 41 42 45 45 43 45 55 64 65 61 55 51 50 42 41 48 44 42 46 46 46 47 47
22 22 21 22 24 26 27 28 28 29 30 31 33 35 36 37 39 39 40 42 38 26 14 10 14 12 12 14 17 22 20 21 20 19 24 29 30 28 27 29 28 25 24 26 26 28 28 22 15 15 18 22 23 22 22 22 23 23 23 24 27 29 27 30 37 38 45 53 47 36 33 46 62 66 62 56 51 48 38 35 43 42 40 41 39 39 38 36
23 23 23 23 24 27 28 28 29 29 30 31 32 34 36 38 39 40 42 41 33 21 9 9 14 15 13 14 19 20 20 22 21 23 29 31 29 28 28 28 27 26 27 28 28 28 26 17 15 20 22 23 24 25 23 21 24 25 24 24 24 25 26 29 33 36 42 50 52 39 22 32 59 67 62 56 49 44 36 33 39 39 36 35 33 33 32 29
24 24 24 24 25 28 29 29 30 30 31 32 33 34 35 38 38 38 43 37 23 12 5 8 11 12 13 18 20 19 20 20 22 28 30 29 29 29 29 27 26 27 28 30 30 28 23 18 20 24 24 24 26 26 22 19 22 25 24 24 24 24 28 31 34 38 37 43 56 49 24 25 50 66 60 51 47 43 39 36 37 34 31 32 32 33 34 34
25 25 26 26 26 28 30 31 32 32 33 33 33 34 35 37 36 38 38 23 9 7 5 8 10 13 17 20 19 20 21 23 27 29 28 29 30 30 28 26 26 26 27 30 30 26 23 23 24 24 25 27 28 26 21 19 21 23 23 24 27 27 30 35 40 43 41 47 55 49 34 23 38 62 56 41 44 46 39 34 30 28 29 33 36 36 37 39
27 27 27 28 29 29 31 32 33 33 33 34 34 34 35 35 35 35 26 9 5 10 8 9 13 17 18 18 21 24 25 28 30 29 29 30 30 29 27 27 27 27 25 25 28 28 25 24 23 24 28 29 26 22 20 21 21 22 24 25 28 30 36 43 44 41 39 40 40 43 39 19 27 56 48 35 44 38 26 26 25 30 36 38 37 35 37 41
29 29 29 30 31 31 32 33 34 34 34 35 34 34 35 34 34 30 15 4 9 13 13 15 16 16 18 22 27 27 28 32 31 31 32 30 29 28 26 27 29 27 24 24 28 27 22 23 25 27 29 27 22 19 19 21 19 21 23 25 30 37 45 46 36 33 31 25 29 38 33 10 22 53 43 27 32 26 22 32 34 36 38 37 39 40 42 45
31 30 30 31 32 33 34 34 34 35 35 34 34 34 34 33 31 22 7 6 15 18 18 18 15 17 24 29 31 30 31 33 33 33 31 27 27 25 24 28 29 27 26 25 24 22 21 25 26 26 27 23 19 18 18 19 17 20 25 31 39 42 41 35 28 26 19 14 25 31 26 15 20 40 34 19 24 34 39 40 36 34 34 37 44 48 51 54
32 32 31 32 33 34 34 33 34 35 35 33 33 33 33 33 27 11 4 15 22 18 15 14 18 27 32 33 33 33 34 34 34 33 30 26 24 24 26 27 27 29 28 24 22 25 25 23 23 24 22 17 16 15 16 18 19 25 33 37 36 31 27 25 23 16 6 9 28 35 33 29 24 31 33 27 33 40 35 30 34 38 42 48 53 57 59 61
34 33 33 33 33 34 34 34 35 35 34 33 31 31 32 30 19 9 10 19 17 12 17 23 29 34 34 34 35 35 35 34 34 32 27 23 22 26 27 24 25 27 24 23 29 32 27 19 18 16 13 11 13 16 18 23 28 33 34 26 15 12 14 13 10 7 6 15 39 48 37 30 35 36 32 27 26 22 21 30 40 47 54 57 59 62 64 65
35 34 34 34 34 33 33 34 34 33 32 31 29 30 29 20 12 14 19 21 17 21 30 34 35 35 34 35 35 34 35 34 31 27 22 21 22 25 24 23 23 18 19 28 32 31 25 14 8 6 10 13 16 20 23 29 36 36 25 17 10 6 6 6 6 8 10 21 51 61 38 25 32 25 16 19 25 29 38 43 42 49 57 59 59 60 63 65
36 35 35 34 34 33 33 34 33 32 31 30 29 29 24 17 18 26 28 27 27 31 35 35 35 36 35 35 35 33 32 29 24 21 20 21 22 21 22 23 20 15 20 26 24 23 21 10 6 10 13 13 21 27 25 29 38 32 20 16 12 6 3 5 7 9 11 22 48 52 25 19 28 20 22 37 43 45 47 44 41 48 55 60 64 64 65 66
37 36 36 35 34 33 33 33 32 31 29 29 29 25 22 23 26 30 30 30 31 32 35 36 37 37 36 34 31 28 24 22 21 20 21 22 23 23 22 18 16 16 18 18 19 22 21 14 12 18 20 19 26 27 21 29 34 25 20 18 14 16 18 18 19 24 24 19 28 30 21 35 48 44 46 48 40 37 39 43 50 55 59 62 64 63 61 59
38 38 37 36 34 34 34 33 32 30 29 28 27 27 28 29 30 31 32 33 34 35 38 38 35 32 29 25 22 20 20 20 22 21 20 21 22 21 18 14 15 15 16 17 19 17 18 21 20 26 33 28 23 25 26 30 24 17 24 26 24 25 24 22 22 27 26 14 15 20 26 47 55 45 41 34 32 40 47 53 55 52 53 54 53 56 56 53
40 40 39 37 35 34 34 34 32 30 29 27 28 32 35 34 33 33 34 35 36 35 35 34 31 26 22 21 21 21 21 19 18 19 20 20 19 16 13 14 16 16 18 20 18 11 16 34 38 31 32 29 26 33 34 24 17 21 29 30 26 19 14 16 13 11 11 8 12 17 27 46 42 27 30 35 44 55 53 47 45 46 50 51 55 59 55 51
41 41 41 39 37 35 35 34 33 31 30 30 32 36 38 37 35 34 35 36 35 34 34 33 31 27 25 24 23 23 21 19 18 19 21 18 15 13 12 15 18 19 21 20 17 14 15 31 43 33 28 35 40 39 30 25 28 30 23 19 17 11 11 16 13 10 9 7 10 16 27 43 38 30 41 50 52 50 44 43 48 53 56 57 61 61 54 51
42 42 42 41 38 36 36 35 35 33 32 34 36 36 38 39 37 36 36 35 33 32 34 34 31 29 28 27 25 25 23 23 22 21 19 14 12 16 17 19 20 19 22 19 16 19 16 19 34 40 37 42 44 36 32 37 37 25 13 13 15 9 10 17 19 18 12 7 11 13 15 30 37 40 49 49 43 43 48 55 58 58 61 63 63 59 54 53
41 41 43 43 40 38 38 37 37 36 36 39 40 38 40 40 39 38 36 33 31 31 33 33 32 30 30 30 28 28 26 25 24 21 19 15 15 20 19 18 18 17 20 19 16 21 22 15 28 47 50 44 38 33 35 38 28 18 18 21 21 19 19 22 26 24 15 8 8 7 9 28 41 40 40 40 41 50 57 60 61 61 64 64 60 57 55 55
40 42 44 43 41 40 40 39 40 39 39 42 42 40 40 39 38 37 34 32 31 31 31 32 33 32 32 31 30 29 26 25 25 22 20 19 17 19 17 14 16 18 20 21 19 22 23 20 30 47 51 44 38 35 34 26 14 14 23 25 25 28 25 18 16 20 22 17 14 10 13 32 41 33 34 43 49 57 61 61 63 64 64 62 59 58 57 58
41 43 45 43 42 42 42 42 43 43 44 45 43 41 39 38 38 36 34 32 31 31 31 32 33 33 33 33 32 30 27 25 25 22 19 20 18 18 18 16 18 22 23 23 22 22 24 26 31 39 42 40 38 36 30 18 12 19 27 28 28 30 27 17 13 21 28 26 26 21 17 31 40 34 40 52 55 59 62 62 64 64 63 62 60 59 59 59
42 44 46 45 44 43 43 45 47 47 47 46 43 41 40 39 40 38 36 33 31 31 31 31 33 33 33 33 31 29 26 23 21 19 17 18 18 17 17 18 21 24 24 21 21 23 24 23 25 33 40 41 37 30 20 16 20 26 29 32 31 32 33 28 26 31 27 22 24 16 11 29 45 44 51 58 57 61 63 61 62 63 64 62 61 62 62 62
44 46 47 47 46 46 46 48 50 49 48 45 43 42 41 41 41 40 36 33 31 30 31 31 31 31 32 31 29 27 25 19 16 17 18 18 19 19 18 19 22 23 23 23 23 24 22 18 19 25 27 28 28 22 19 28 34 32 31 34 34 37 38 35 36 34 21 22 30 16 10 34 53 54 58 61 61 64 63 61 63 65 66 65 63 65 66 67
47 48 49 49 48 48 49 50 49 48 47 45 44 44 43 42 43 41 36 33 31 30 30 31 31 31 31 30 29 27 26 22 19 20 21 21 21 20 19 20 22 23 24 25 26 25 20 18 19 17 10 10 15 15 22 36 41 36 35 35 36 39 37 35 36 28 17 27 37 25 25 48 60 58 61 64 64 65 64 63 65 66 67 67 67 69 71 72
49 49 50 51 50 50 52 51 49 48 47 44 43 44 44 43 42 40 36 33 31 30 30 31 32 32 32 31 29 28 28 26 24 23 23 24 23 22 22 23 24 25 25 25 25 23 20 20 21 20 19 19 20 23 27 32 35 36 33 32 37 37 32 32 34 28 27 33 36 36 42 54 60 61 65 67 65 64 65 65 65 67 69 71 73 75 75 75
51 53 53 53 49 46 47 48 45 43 41 39 40 42 43 41 38 36 34 32 31 29 28 30 31 31 31 31 29 29 29 27 26 26 26 26 26 25 25 25 25 25 24 24 24 22 22 24 24 25 27 24 23 28 30 30 32 33 28 31 37 32 28 33 34 32 35 30 28 41 51 53 60 65 65 66 66 65 66 65 65 70 73 76 79 80 79 78
55 56 57 55 50 47 49 50 45 39 37 39 42 43 43 41 38 36 34 32 31 29 27 29 30 30 30 31 29 29 29 27 27 28 27 25 25 24 24 24 25 25 23 22 23 24 26 27 24 23 26 26 25 28 29 29 30 28 27 33 36 29 27 32 32 33 35 28 32 49 54 53 60 63 62 66 67 66 67 68 70 75 78 80 82 83 83 81
57 59 59 57 56 55 56 55 50 46 44 45 46 46 45 43 42 39 34 32 32 30 29 31 32 31 30 30 30 30 30 28 28 28 26 24 24 25 26 25 23 23 22 22 24 23 23 25 21 20 27 30 28 28 28 27 25 27 31 33 28 24 26 28 30 33 35 35 44 54 54 54 59 60 62 65 67 70 73 75 78 80 81 83 85 87 87 85
59 61 60 59 58 57 57 54 50 47 47 47 47 47 45 44 43 40 37 35 33 32 31 32 31 29 29 30 31 31 30 30 29 29 28 26 26 26 25 23 21 21 22 24 24 20 20 23 22 22 29 32 29 27 27 26 25 29 31 26 21 23 27 26 28 33 35 41 49 53 53 56 58 59 62 65 70 78 81 80 83 84 84 86 90 90 89 85
62 63 62 60 59 57 55 52 48 47 49 49 48 47 45 45 43 39 37 35 33 30 29 28 27 27 29 31 31 30 30 30 30 29 29 27 27 27 24 23 22 22 22 23 23 20 19 21 22 21 25 31 31 28 27 30 31 29 26 25 23 25 26 25 28 32 36 43 51 52 51 56 60 61 63 68 77 84 85 83 84 86 89 91 91 89 86 81
65 67 65 61 58 56 52 49 47 49 51 50 46 44 42 42 40 35 33 33 31 28 26 25 25 28 31 31 30 28 28 29 28 28 28 27 28 26 24 24 23 22 23 21 20 19 16 17 21 18 18 28 31 28 30 33 25 19 23 26 25 24 24 27 32 34 35 42 49 52 53 58 61 62 66 74 81 87 89 86 84 89 93 93 90 86 80 73
Wind_Direction
28 28 27 25 24 22 20 17 14 13 10 7 5 5 4 1 359 357 357 357 357 356 355 355 354 355 358 358 355 353 350 346 342 341 336 325 324 324 322 324 324 325 326 330 331 332 335 338 344 346 342 338 333 334 332 336 340 341 343 339 342 336 335 342 337 329 328 333 336 336 327 324 333 328 320 326 329 326 319 321 317 317 328 329 328 330 334 334
21 22 22 22 21 20 18 16 13 11 9 6 5 5 3 360 358 357 357 358 358 357 356 354 354 354 356 359 355 351 348 343 341 342 335 329 329 327 324 324 326 328 329 331 332 336 340 342 348 351 348 341 336 336 333 338 342 343 342 341 345 335 337 344 336 330 326 325 328 330 324 321 328 325 322 324 329 328 318 326 322 321 327 327 328 328 331 333
14 15 17 18 18 18 16 14 11 10 7 4 4 5 2 360 359 358 358 358 358 357 356 354 354 354 355 358 356 351 347 343 342 344 339 337 337 333 331 332 333 333 333 336 339 341 342 344 348 352 352 345 341 339 335 341 343 346 343 342 345 332 337 343 334 332 327 323 322 325 321 320 323 320 320 321 327 331 317 326 328 325 326 322 325 325 329 331
7 9 12 13 14 14 14 11 10 8 5 2 3 4 1 358 357 357 356 356 357 356 356 355 354 354 354 356 357 353 349 346 348 353 352 354 354 351 348 344 341 340 342 345 345 344 344 346 349 353 355 349 346 341 338 344 345 349 344 340 343 330 332 339 331 329 328 323 320 322 320 320 321 317 319 315 323 334 317 316 319 323 325 318 318 321 325 328
1 4 7 9 10 10 10 8 7 6 2 359 359 1 358 355 354 353 352 353 354 353 354 355 354 355 354 354 356 354 353 353 353 1 8 10 9 5 359 354 353 352 350 349 348 347 346 348 351 353 356 352 348 345 342 345 342 348 344 338 339 327 326 332 327 324 326 323 319 320 318 320 320 318 318 311 322 335 323 313 310 315 323 317 313 315 320 324
356 359 1 3 5 7 6 3 2 2 359 356 355 356 355 352 350 349 349 351 352 353 355 356 356 355 353 353 354 354 356 357 357 4 11 12 14 13 7 5 2 358 353 351 350 347 346 347 350 353 355 353 351 348 343 341 337 343 340 331 333 324 324 327 323 322 322 320 317 317 318 320 319 317 316 315 330 336 313 302 303 309 317 316 313 311 313 317
352 352 354 358 1 1 360 358 357 357 355 352 350 351 351 349 347 348 349 350 350 352 355 357 357 355 353 352 351 353 356 359 4 10 14 18 21 17 11 7 2 360 354 351 347 343 343 346 349 352 355 353 348 343 338 336 333 335 330 324 327 321 322 322 320 320 318 316 313 313 317 317 315 313 314 326 343 332 296 293 302 309 314 316 316 308 305 311
345 346 348 352 354 355 354 352 351 350 350 348 346 346 347 346 345 347 348 349 349 350 353 355 356 355 353 350 348 349 352 359 8 14 20 24 19 13 10 6 1 358 353 349 345 343 344 345 346 348 350 347 341 335 332 331 328 327 323 320 322 319 320 319 317 316 314 312 309 311 314 312 310 308 314 335 340 315 304 308 310 313 316 319 319 313 312 316
341 341 343 346 348 348 347 346 344 344 345 343 342 340 343 344 343 345 347 347 347 347 351 353 354 353 351 348 345 343 346 354 2 9 18 17 10 9 8 4 358 354 352 350 347 346 344 340 338 338 342 341 335 331 328 327 324 321 318 317 318 317 320 318 313 311 308 308 309 312 311 308 308 306 317 335 322 312 316 316 316 318 320 321 319 319 321 322
335 336 338 340 341 343 343 341 339 338 339 338 338 336 338 341 341 342 344 345 345 345 347 349 351 350 348 346 341 339 341 345 353 3 11 7 6 5 359 353 351 351 351 350 348 345 340 336 330 328 333 335 331 327 324 321 318 317 315 314 315 314 319 319 312 308 305 307 310 312 310 308 308 308 320 330 317 314 316 316 318 319 320 322 321 322 323 324
331 332 332 334 337 338 337 336 335 334 335 334 334 333 335 338 339 340 341 343 343 344 345 346 347 346 345 343 337 335 336 338 348 358 1 0 360 355 348 343 345 348 348 348 346 342 337 332 326 324 328 329 328 323 318 314 312 314 312 312 312 310 317 318 312 308 305 308 312 311 308 306 309 312 323 328 320 318 316 317 320 318 319 321 321 323 323 327
327 326 328 332 333 332 332 333 333 332 331 330 330 330 332 335 336 337 340 341 341 342 343 345 345 344 344 340 332 329 330 335 346 352 351 350 347 344 342 339 340 343 345 346 342 339 336 330 324 322 324 325 325 321 314 309 309 311 309 310 311 309 317 320 314 311 308 310 311 311 308 307 313 319 327 329 324 320 319 321 322 320 320 321 322 324 327 331
322 323 327 329 328 328 329 331 331 330 328 328 327 328 330 332 335 336 338 339 340 341 343 345 346 344 343 335 325 324 327 334 342 344 342 339 335 335 337 335 334 337 340 340 338 336 333 329 324 322 323 323 321 316 310 306 307 310 308 310 312 311 317 327 323 317 313 312 313 314 311 310 317 323 326 328 325 322 323 325 325 324 324 324 327 329 330 333
319 321 324 325 324 326 328 329 328 327 325 325 326 328 330 332 336 336 337 339 340 341 342 344 343 342 340 329 317 320 324 330 336 338 335 330 326 328 332 329 329 333 334 334 334 334 332 329 326 323 322 318 314 308 303 304 306 309 309 311 316 314 317 328 330 323 319 317 317 316 308 308 319 326 326 327 326 325 324 327 328 328 328 328 330 331 331 331
316 318 319 319 321 325 326 325 324 323 323 324 327 329 331 334 336 336 337 337 336 337 338 338 339 340 336 322 312 318 322 327 331 331 328 323 321 326 329 326 327 330 330 330 330 331 330 327 324 321 319 313 308 303 301 305 307 310 315 317 318 316 316 324 331 327 322 318 317 317 306 306 320 329 328 327 326 324 322 326 330 330 329 330 330 330 329 328
313 314 314 316 321 324 323 321 321 321 323 326 329 331 332 333 334 335 335 333 331 333 334 334 337 339 331 314 310 316 320 324 325 325 323 320 318 323 326 323 324 327 326 326 328 330 328 325 322 319 316 309 305 304 303 308 309 315 322 320 318 317 316 320 329 330 322 316 314 314 305 304 316 325 327 328 325 321 319 324 330 331 332 332 329 326 325 323
309 310 312 315 320 322 320 319 320 322 326 329 330 330 329 329 331 334 332 329 331 334 335 335 337 338 325 309 311 312 319 322 321 321 321 318 318 323 324 321 322 324 324 325 327 329 326 323 320 318 314 307 306 306 310 318 321 322 324 319 315 316 314 315 323 328 321 314 313 311 303 303 311 317 321 327 325 319 319 324 329 332 332 330 326 322 321 321
305 307 311 314 318 321 319 318 321 325 328 329 329 328 327 328 330 330 328 330 334 336 336 336 337 334 314 303 309 317 323 322 321 320 317 314 319 324 323 320 321 321 322 323 325 327 324 320 318 316 309 302 301 306 317 328 326 323 322 318 315 314 312 312 319 324 319 313 311 310 306 306 310 313 317 324 324 320 322 326 329 330 329 325 321 318 319 320
303 306 311 314 316 319 318 319 323 326 328 329 327 325 325 325 326 326 330 335 337 338 338 337 334 323 305 297 306 323 325 323 319 315 312 312 318 324 323 320 321 321 321 321 322 323 318 319 320 313 307 305 303 304 312 316 313 313 313 311 310 309 310 313 317 318 315 309 307 308 307 306 310 314 318 324 325 323 326 330 329 328 325 321 318 317 317 318
302 305 310 312 314 316 317 320 324 327 328 327 326 325 326 328 329 332 337 341 341 341 339 334 324 306 298 299 315 326 325 322 316 306 303 308 316 322 321 320 320 320 319 318 319 318 317 323 324 311 308 311 307 302 300 303 304 304 305 305 303 302 305 312 313 313 314 306 303 307 307 306 310 314 317 322 324 324 328 332 329 327 325 321 317 315 315 317
301 304 308 310 312 314 317 321 325 327 328 327 328 331 333 335 337 337 338 342 345 342 335 328 308 282 271 280 309 325 324 321 313 301 297 306 318 323 321 321 322 322 318 316 317 316 318 325 323 310 305 300 302 300 295 297 298 299 303 302 300 299 303 307 308 311 313 303 301 307 307 307 310 313 316 319 322 323 328 329 325 325 323 317 314 313 312 315
300 301 304 308 310 313 316 320 324 327 327 328 330 333 336 338 339 337 336 338 342 339 330 304 281 277 269 267 297 320 321 318 308 298 296 304 318 324 323 324 325 326 319 314 316 316 319 326 319 306 298 296 302 299 294 295 295 299 304 300 297 303 305 303 307 312 312 303 302 306 306 306 309 313 316 319 320 321 327 325 319 320 317 311 311 311 310 310
297 298 302 307 308 311 315 317 321 325 327 328 329 333 337 337 336 335 334 334 337 338 324 266 243 266 277 268 297 319 321 320 308 295 297 306 317 323 325 325 325 327 319 312 315 315 320 326 316 300 297 303 305 301 300 298 297 299 300 297 297 305 305 302 308 312 309 304 303 306 306 304 308 313 316 320 320 318 322 321 313 312 309 306 308 308 307 307
295 297 300 305 307 309 311 314 319 323 325 327 329 332 334 335 335 333 332 332 335 338 320 254 226 249 272 268 296 317 322 321 313 304 308 314 320 323 324 325 325 327 320 313 314 315 319 323 315 305 306 310 309 308 309 302 300 301 298 297 299 303 299 295 302 306 306 304 305 312 311 302 307 311 310 315 320 315 318 319 309 305 303 302 303 302 303 304
293 295 299 303 304 306 308 311 316 320 322 325 327 330 331 333 333 332 332 332 335 337 313 240 230 249 268 279 299 315 319 315 309 310 315 318 321 320 322 324 323 325 321 314 314 318 320 319 314 313 312 312 309 311 315 307 301 300 300 303 301 299 295 294 303 311 312 306 306 316 317 300 305 306 304 312 317 314 320 318 305 301 298 299 302 303 305 307
293 295 297 300 302 304 306 309 313 315 318 321 324 326 328 331 332 332 332 332 333 338 290 235 242 256 282 296 306 317 315 308 305 311 316 317 318 316 318 320 320 324 322 315 316 320 319 315 314 314 313 311 308 312 317 307 298 298 303 305 297 296 301 304 311 316 313 304 304 309 303 290 298 299 303 312 313 315 322 315 302 297 296 300 306 310 312 312
292 295 296 298 301 302 304 307 310 312 316 318 321 323 325 329 331 332 333 332 335 340 291 247 259 279 296 302 310 316 309 305 309 313 314 314 312 312 313 316 317 321 320 314 313 317 317 312 311 311 309 308 308 313 312 298 293 294 297 296 290 296 303 306 312 313 309 304 301 301 296 282 285 294 304 313 311 315 317 306 296 294 300 306 308 312 316 317
292 295 296 298 300 301 303 305 307 310 313 316 318 319 323 327 329 332 336 336 318 324 306 273 280 291 300 306 314 315 308 307 310 311 313 311 309 308 310 314 315 316 318 310 306 312 315 309 311 311 308 307 307 307 299 291 289 287 288 289 291 299 304 306 311 311 310 305 295 295 299 283 273 292 306 315 309 311 308 299 300 301 304 307 309 312 315 317
292 294 296 298 299 301 303 303 306 308 311 313 314 316 320 324 327 330 333 303 305 312 305 299 296 297 306 312 313 312 308 306 305 307 311 310 308 307 309 313 313 313 316 309 305 310 313 310 312 311 306 305 303 297 290 287 286 285 289 291 294 302 305 308 311 307 306 294 282 295 305 292 277 294 307 322 313 311 309 306 307 307 307 309 314 318 317 317
290 293 295 297 299 300 302 303 305 307 308 310 312 314 318 322 326 330 326 286 303 305 301 302 301 306 313 313 311 310 307 304 303 306 309 308 305 304 308 312 311 313 314 309 305 307 310 312 312 309 304 299 293 290 289 288 289 294 302 305 305 308 310 310 309 302 295 276 282 298 313 317 294 295 308 328 316 309 308 308 307 307 309 313 319 322 321 321
289 292 294 296 298 300 302 303 304 305 306 308 310 313 317 319 321 319 278 300 307 303 300 302 305 311 313 312 310 310 307 304 305 307 307 305 300 299 308 313 312 314 313 309 309 312 316 319 319 313 301 288 283 285 284 283 291 304 314 318 315 318 320 314 311 302 261 271 292 298 311 311 289 290 306 308 298 296 300 315 323 320 320 322 324 325 322 322
288 290 293 295 298 300 301 302 302 304 304 306 310 312 316 320 314 272 276 304 305 297 302 306 307 309 311 310 310 309 307 305 305 307 306 304 303 309 316 318 317 318 316 315 318 320 323 328 330 315 286 275 280 285 289 291 303 316 323 330 329 327 325 316 318 306 252 282 296 300 310 300 279 288 306 306 297 296 307 323 328 327 328 329 328 328 325 323
288 290 292 295 297 299 300 300 302 302 304 307 309 310 315 317 298 281 292 297 291 294 302 304 305 306 307 307 306 305 304 302 302 304 303 302 309 316 319 318 316 314 311 315 319 323 330 342 359 322 283 293 298 303 310 311 318 327 332 344 347 330 326 314 314 307 284 291 298 303 308 293 285 297 316 313 312 313 312 312 315 321 326 327 327 329 327 324
287 289 292 294 296 297 298 299 300 301 304 305 305 308 307 294 285 294 298 296 296 299 301 302 302 303 303 302 301 300 299 299 298 298 297 300 307 312 314 312 307 298 302 312 318 321 322 321 331 313 290 294 308 314 322 322 325 327 324 336 345 349 359 308 290 293 288 289 295 300 303 288 292 301 303 305 306 304 301 298 302 310 312 312 314 319 321 321
287 289 291 293 294 295 296 296 298 299 301 302 303 300 291 285 291 299 301 300 300 301 299 300 300 300 300 299 296 295 294 292 292 294 295 301 306 309 310 304 292 292 301 312 317 314 308 295 304 311 299 297 308 312 321 324 324 321 318 330 335 324 310 286 274 278 279 279 286 291 286 283 289 294 299 302 300 295 296 299 305 307 307 308 310 315 318 319
287 288 290 291 292 293 293 294 295 296 298 300 296 289 285 289 295 299 300 300 301 301 299 299 298 299 298 297 294 290 289 287 288 291 295 303 307 306 307 298 287 292 298 307 314 314 307 300 301 310 309 308 311 313 321 325 323 318 321 324 320 316 305 286 277 276 276 273 279 287 288 288 292 298 301 301 297 300 308 313 314 312 311 314 317 320 323 323
287 287 288 288 289 290 290 291 292 292 296 296 288 286 290 292 294 297 298 301 302 301 298 296 296 296 291 288 287 284 285 285 285 291 298 305 304 298 299 297 291 293 296 303 310 305 301 302 303 308 310 309 312 318 324 329 329 325 322 322 322 321 316 307 295 274 274 275 280 293 295 292 296 302 303 308 310 313 318 319 316 313 314 317 320 323 326 327
285 285 285 285 286 288 288 288 289 289 292 291 287 289 292 292 294 297 299 301 301 297 292 289 289 289 285 282 282 280 280 279 280 291 299 301 295 286 291 295 293 295 295 299 301 295 300 306 305 306 307 309 315 321 324 323 327 329 324 330 339 332 324 326 313 292 304 297 284 297 295 291 294 302 309 315 317 317 320 317 314 315 316 319 322 323 325 327
283 284 284 284 285 286 285 286 286 286 287 288 289 291 291 292 295 297 298 299 297 292 288 285 284 283 281 279 279 278 278 279 282 289 295 292 281 281 287 290 291 292 292 292 289 292 302 305 299 300 304 310 315 320 322 323 329 337 335 348 358 338 318 320 303 290 295 289 287 295 288 285 292 303 310 314 315 314 315 316 317 319 318 320 323 324 326 327
282 282 282 283 284 284 284 284 283 283 284 287 290 290 289 290 292 295 296 295 292 288 284 283 281 278 277 277 277 277 279 282 285 287 287 282 275 282 286 285 285 285 286 286 282 292 303 293 288 299 306 311 316 320 323 325 332 346 345 348 348 336 329 317 301 295 294 282 290 306 280 282 293 307 310 310 312 313 314 317 319 319 319 321 325 326 327 327
280 280 280 282 284 284 283 282 282 282 283 286 289 290 289 287 288 292 292 290 288 284 282 281 278 275 275 275 275 277 280 282 285 287 285 280 273 276 282 282 285 286 283 284 286 294 303 296 291 299 306 311 315 317 320 323 329 339 340 341 335 333 336 325 305 304 300 288 290 300 283 286 298 312 311 309 313 314 316 319 319 319 321 323 326 326 326 325
279 279 281 282 282 282 282 281 280 279 281 285 288 288 286 284 285 287 286 284 283 281 280 277 275 274 272 272 273 276 278 280 284 286 281 277 271 271 280 285 288 289 286 288 294 298 304 302 295 296 301 306 310 314 318 318 314 318 324 329 329 330 329 311 290 300 299 292 291 287 274 287 300 312 313 312 314 315 317 319 319 320 323 324 326 326 325 324
279 280 281 281 280 280 279 278 278 278 281 286 287 285 283 282 283 283 281 280 279 277 276 273 273 272 270 271 273 274 276 279 281 281 275 272 270 270 279 286 288 290 290 292 298 303 307 305 297 296 301 305 311 316 316 307 312 319 323 327 326 324 320 307 295 298 296 292 296 286 258 290 303 314 315 314 315 316 318 320 320 322 324 325 325 324 323 322
279 279 278 278 277 277 276 276 277 279 282 283 282 281 281 281 281 279 277 275 273 272 272 271 271 271 270 273 273 272 273 273 274 275 271 270 274 276 279 283 287 290 292 296 303 306 305 298 299 306 310 315 320 324 318 314 320 324 324 324 322 320 321 316 309 307 298 294 302 294 266 296 307 315 315 315 317 317 319 322 323 324 324 325 324 323 322 320
276 275 275 274 273 273 273 275 276 277 279 279 279 279 279 279 280 278 274 272 268 266 267 268 268 269 271 272 271 270 269 269 271 271 272 275 277 280 283 285 289 292 295 301 306 307 301 291 296 301 296 302 308 305 308 312 315 316 318 322 321 322 325 320 312 308 298 299 301 291 284 299 308 314 315 317 319 319 322 324 324 324 323 322 322 321 320 318
272 271 271 272 272 271 272 273 273 273 274 275 276 278 279 278 278 277 273 268 265 263 263 265 266 267 268 268 268 270 270 271 271 269 273 278 277 282 286 287 291 295 299 305 307 306 303 295 296 292 278 277 284 291 303 306 304 306 314 320 321 323 327 319 306 297 297 300 296 292 296 300 307 314 316 318 320 320 322 324 324 323 321 319 319 318 317 315
268 268 269 269 269 269 271 272 271 270 271 272 274 277 279 278 275 273 270 266 265 263 260 259 260 261 263 265 268 270 272 273 272 270 272 276 279 284 287 289 293 296 301 306 306 308 305 298 299 298 292 290 293 299 307 307 302 305 313 318 320 324 324 312 302 301 305 300 291 300 306 303 306 313 316 318 320 320 321 323 323 320 318 317 317 316 316 315
265 266 268 267 265 267 269 270 270 269 270 273 275 276 275 274 272 270 267 265 262 258 254 253 256 257 261 266 268 269 271 271 270 270 270 273 279 283 286 290 293 296 303 305 304 308 304 298 300 302 298 298 298 301 306 306 305 310 314 315 316 320 318 309 307 312 312 299 293 305 308 304 307 314 317 319 320 319 319 320 320 318 318 318 318 318 317 317
264 264 267 267 266 268 268 269 269 268 271 275 275 273 271 270 270 267 263 261 257 255 254 255 259 261 262 266 267 267 269 268 268 270 271 274 279 282 286 290 292 297 301 301 302 303 298 296 301 302 299 298 299 304 308 308 308 310 314 316 315 317 320 316 315 320 315 304 303 307 307 307 313 318 320 321 320 317 317 319 319 320 321 320 319 318 318 317
265 265 267 267 267 268 269 268 268 269 272 273 271 271 271 268 267 264 261 260 258 257 259 259 262 265 265 265 267 267 267 268 270 273 275 278 281 283 287 289 291 294 294 296 298 294 289 291 296 301 300 298 303 312 313 312 311 310 317 328 327 322 323 320 318 320 317 310 310 311 308 310 317 322 322 321 320 318 319 321 321 322 322 320 319 318 318 317
265 266 267 266 265 267 268 267 267 268 270 271 269 270 270 268 266 264 261 261 259 257 259 261 264 267 266 265 266 267 269 270 272 276 278 281 283 285 288 289 290 291 291 293 291 286 286 288 294 305 302 299 310 319 316 315 315 317 332 344 336 326 323 317 315 320 319 315 313 311 309 312 318 322 322 322 322 321 321 322 322 321 321 320 319 319 319 319
266 266 267 266 264 264 264 263 263 265 268 271 270 268 267 266 264 259 256 259 258 256 259 262 264 265 266 266 268 269 270 271 273 276 278 280 283 285 288 290 291 293 292 290 286 287 288 286 297 310 300 300 315 323 318 319 321 329 345 345 334 327 318 311 313 318 322 318 313 310 310 314 319 322 322 323 324 322 321 321 320 320 321 322 322 321 321 319
Height
3199 3198 3197 3196 3196 3195 3194 3194 3193 3192 3191 3190 3189 3188 3186 3185 3183 3182 3180 3179 3176 3174 3172 3170 3168 3166 3164 3162 3159 3156 3154 3151 3149 3148 3147 3146 3145 3144 3143 3142 3142 3141 3140 3139 3138 3136 3135 3134 3134 3133 3133 3132 3131 3130 3129 3128 3127 3126 3125 3124 3123 3122 3121 3120 3119 3118 3116 3115 3114 3113 3111 3108 3107 3105 3104 3103 3102 3099 3097 3097 3095 3093 3091 3089 3087 3085 3084 3083
3199 3198 3197 3196 3196 3195 3195 3194 3193 3192 3190 3190 3189 3188 3186 3185 3183 3181 3180 3178 3176 3174 3172 3169 3167 3165 3163 3161 3158 3155 3153 3150 3148 3147 3146 3145 3144 3143 3142 3141 3141 3140 3139 3138 3137 3136 3134 3133 3132 3132 3132 3131 3130 3129 3128 3127 3126 3125 3124 3123 3122 3120 3119 3119 3118 3116 3114 3113 3112 3112 3110 3108 3106 3103 3101 3100 3099 3098 3095 3094 3093 3092 3091 3089 3086 3084 3083 3082
3199 3198 3197 3196 3196 3195 3195 3194 3193 3191 3190 3189 3188 3187 3186 3185 3183 3181 3179 3178 3176 3174 3171 3169 3167 3164 3162 3161 3158 3154 3152 3149 3147 3146 3145 3144 3143 3142 3141 3140 3140 3139 3138 3138 3136 3135 3133 3132 3132 3132 3131 3130 3129 3128 3127 3127 3125 3124 3123 3122 3121 3119 3118 3118 3116 3115 3112 3111 3110 3109 3108 3107 3106 3103 3100 3098 3096 3096 3094 3092 3091 3090 3090 3089 3086 3084 3082 3080
3198 3198 3197 3196 3196 3195 3195 3194 3193 3191 3190 3188 3188 3187 3186 3184 3182 3181 3179 3177 3175 3173 3171 3169 3166 3163 3161 3159 3157 3154 3151 3148 3147 3146 3144 3143 3142 3141 3140 3140 3139 3138 3137 3137 3135 3134 3132 3132 3131 3131 3130 3129 3128 3127 3126 3125 3124 3123 3122 3120 3119 3117 3117 3116 3114 3112 3111 3109 3107 3107 3105 3103 3104 3102 3100 3097 3094 3094 3094 3092 3090 3089 3088 3086 3085 3083 3081 3079
3198 3197 3196 3196 3195 3195 3194 3193 3192 3191 3190 3188 3187 3187 3185 3183 3182 3180 3178 3176 3175 3173 3171 3168 3165 3163 3160 3158 3156 3153 3150 3148 3147 3145 3143 3142 3141 3141 3140 3139 3139 3138 3137 3136 3135 3133 3132 3132 3131 3130 3130 3128 3127 3125 3124 3124 3123 3123 3121 3119 3118 3115 3114 3114 3112 3110 3108 3107 3106 3105 3103 3101 3101 3100 3099 3096 3093 3093 3093 3091 3089 3087 3086 3084 3082 3081 3080 3078
3197 3197 3196 3195 3195 3194 3194 3193 3192 3191 3189 3188 3187 3186 3185 3183 3181 3180 3178 3176 3174 3172 3170 3167 3165 3162 3159 3157 3155 3153 3150 3148 3147 3145 3143 3142 3141 3140 3140 3139 3139 3138 3137 3135 3134 3133 3132 3131 3131 3130 3128 3127 3126 3124 3123 3122 3121 3121 3120 3119 3117 3114 3112 3111 3110 3108 3106 3104 3103 3102 3101 3099 3098 3096 3096 3094 3092 3092 3091 3089 3087 3085 3084 3082 3080 3079 3078 3076
3197 3196 3195 3195 3194 3193 3193 3192 3191 3190 3189 3187 3186 3185 3184 3183 3181 3179 3177 3175 3173 3171 3169 3166 3164 3161 3158 3156 3154 3152 3150 3149 3147 3145 3143 3142 3141 3141 3140 3139 3138 3138 3136 3135 3133 3132 3131 3130 3129 3128 3127 3126 3124 3123 3122 3121 3119 3119 3118 3117 3116 3114 3111 3109 3107 3106 3103 3101 3100 3100 3098 3098 3096 3093 3092 3092 3091 3090 3088 3087 3085 3084 3082 3080 3079 3078 3076 3074
3196 3195 3194 3194 3193 3193 3192 3191 3190 3189 3188 3187 3185 3184 3183 3182 3180 3178 3176 3174 3172 3169 3167 3165 3163 3160 3158 3156 3154 3152 3150 3148 3147 3145 3144 3143 3142 3141 3140 3139 3138 3138 3136 3135 3133 3131 3130 3129 3128 3127 3126 3125 3123 3122 3120 3119 3117 3116 3115 3114 3114 3112 3110 3108 3106 3104 3101 3098 3096 3096 3096 3096 3095 3091 3089 3089 3089 3086 3085 3084 3082 3081 3079 3077 3076 3075 3074 3072
3195 3194 3194 3193 3192 3192 3191 3190 3189 3188 3187 3186 3184 3183 3182 3181 3179 3177 3175 3173 3171 3168 3166 3163 3161 3159 3157 3155 3153 3151 3149 3148 3146 3145 3144 3143 3142 3141 3140 3139 3138 3137 3136 3134 3132 3131 3129 3128 3127 3126 3125 3123 3121 3120 3118 3117 3115 3114 3113 3112 3111 3110 3109 3107 3104 3102 3099 3096 3092 3090 3090 3092 3093 3090 3087 3088 3085 3081 3081 3080 3078 3076 3074 3073 3072 3071 3070 3069
3194 3194 3193 3192 3191 3191 3190 3189 3188 3187 3187 3185 3184 3182 3181 3179 3177 3175 3174 3172 3170 3167 3165 3162 3160 3158 3156 3154 3152 3150 3148 3147 3146 3144 3144 3143 3142 3141 3140 3139 3138 3136 3134 3133 3132 3130 3129 3128 3126 3124 3123 3122 3120 3118 3116 3115 3113 3111 3110 3110 3109 3107 3107 3105 3102 3099 3096 3094 3090 3085 3084 3086 3089 3087 3084 3085 3082 3078 3077 3076 3073 3071 3069 3069 3068 3068 3067 3066
3193 3193 3192 3191 3190 3189 3189 3188 3187 3186 3185 3184 3183 3181 3179 3178 3176 3174 3172 3170 3168 3166 3164 3161 3159 3156 3155 3153 3151 3149 3148 3146 3144 3144 3143 3142 3141 3140 3139 3138 3137 3135 3133 3132 3131 3130 3128 3126 3124 3123 3121 3120 3118 3117 3115 3113 3111 3109 3106 3106 3106 3105 3105 3104 3100 3097 3094 3092 3088 3081 3077 3080 3084 3084 3082 3081 3078 3075 3073 3072 3070 3068 3066 3065 3065 3064 3064 3063
3192 3192 3191 3190 3189 3188 3187 3186 3185 3184 3183 3183 3181 3179 3178 3176 3175 3172 3170 3169 3167 3165 3162 3160 3158 3155 3154 3152 3149 3148 3147 3145 3144 3143 3142 3141 3140 3139 3138 3136 3135 3134 3133 3131 3130 3129 3127 3125 3123 3121 3120 3118 3117 3116 3114 3112 3109 3108 3105 3103 3103 3103 3104 3103 3100 3097 3093 3090 3088 3080 3070 3071 3078 3078 3079 3077 3073 3072 3070 3068 3066 3064 3063 3062 3062 3061 3060 3059
3191 3190 3190 3189 3188 3187 3185 3184 3183 3182 3181 3180 3179 3178 3176 3175 3173 3171 3169 3167 3165 3163 3161 3159 3157 3154 3152 3150 3148 3146 3145 3145 3144 3143 3142 3140 3139 3137 3136 3135 3134 3133 3132 3131 3129 3128 3126 3124 3122 3120 3119 3117 3116 3114 3113 3111 3108 3106 3104 3102 3100 3098 3100 3102 3099 3095 3093 3089 3087 3081 3066 3062 3071 3073 3074 3074 3071 3068 3066 3064 3063 3061 3059 3058 3058 3056 3054 3052
3189 3189 3188 3187 3187 3185 3183 3182 3181 3180 3179 3178 3177 3176 3175 3173 3172 3170 3168 3166 3164 3162 3160 3158 3156 3153 3151 3148 3147 3146 3145 3144 3143 3142 3141 3139 3138 3136 3135 3134 3133 3132 3130 3129 3128 3126 3124 3122 3120 3119 3117 3115 3114 3112 3111 3109 3107 3105 3103 3102 3100 3095 3094 3098 3098 3092 3090 3087 3085 3083 3068 3058 3066 3070 3071 3071 3068 3066 3063 3061 3060 3058 3056 3054 3053 3051 3048 3046
3188 3187 3186 3186 3185 3183 3182 3181 3180 3179 3177 3176 3175 3174 3173 3172 3171 3169 3167 3164 3163 3161 3159 3157 3155 3152 3149 3147 3146 3145 3144 3143 3142 3141 3140 3138 3137 3135 3134 3133 3131 3130 3129 3128 3126 3125 3123 3121 3119 3118 3116 3114 3112 3110 3109 3108 3107 3105 3102 3100 3100 3096 3091 3092 3095 3092 3087 3084 3083 3082 3068 3057 3061 3066 3068 3067 3064 3063 3061 3058 3057 3055 3054 3052 3049 3046 3042 3040
3186 3185 3184 3183 3183 3181 3180 3179 3178 3177 3175 3174 3173 3172 3170 3170 3169 3167 3165 3163 3161 3159 3157 3155 3153 3151 3148 3146 3145 3144 3143 3142 3141 3140 3139 3138 3136 3135 3133 3132 3130 3128 3127 3126 3125 3124 3121 3120 3118 3116 3115 3112 3111 3108 3107 3106 3105 3105 3103 3099 3098 3095 3090 3088 3091 3091 3086 3082 3081 3082 3070 3058 3058 3060 3064 3065 3062 3059 3057 3055 3054 3052 3052 3049 3045 3041 3038 3035
3184 3183 3182 3181 3180 3179 3178 3177 3176 3174 3173 3171 3171 3170 3169 3168 3167 3165 3163 3161 3159 3157 3155 3153 3151 3149 3147 3145 3144 3143 3143 3142 3140 3139 3138 3136 3135 3133 3132 3130 3128 3126 3125 3124 3124 3122 3120 3118 3116 3115 3114 3111 3110 3108 3105 3104 3102 3102 3101 3099 3096 3095 3091 3088 3087 3087 3084 3079 3077 3079 3070 3059 3058 3058 3059 3063 3060 3055 3053 3052 3051 3050 3049 3045 3040 3035 3032 3030
3182 3181 3179 3178 3177 3177 3176 3175 3174 3172 3170 3169 3168 3168 3167 3166 3165 3163 3162 3159 3157 3155 3153 3151 3149 3147 3145 3144 3143 3143 3142 3140 3138 3137 3136 3135 3133 3132 3130 3129 3127 3125 3123 3123 3122 3121 3119 3117 3115 3114 3112 3111 3110 3108 3106 3104 3102 3101 3099 3097 3094 3092 3089 3087 3086 3084 3081 3075 3073 3074 3067 3057 3056 3055 3055 3059 3057 3052 3049 3048 3049 3049 3046 3040 3036 3031 3028 3025
3180 3179 3177 3176 3175 3175 3174 3173 3171 3169 3168 3168 3166 3165 3164 3164 3163 3162 3160 3157 3154 3152 3150 3148 3147 3145 3144 3143 3142 3141 3140 3139 3137 3135 3134 3133 3132 3130 3129 3127 3126 3123 3121 3121 3121 3120 3118 3115 3113 3111 3110 3110 3109 3107 3106 3106 3104 3103 3101 3098 3095 3091 3087 3085 3086 3084 3081 3073 3069 3072 3065 3055 3050 3048 3050 3053 3051 3048 3046 3045 3046 3045 3042 3037 3032 3027 3024 3021
3178 3176 3175 3174 3173 3173 3171 3170 3168 3166 3166 3165 3164 3162 3160 3158 3156 3154 3155 3154 3151 3149 3147 3146 3145 3144 3142 3141 3141 3140 3138 3136 3135 3133 3132 3130 3129 3128 3127 3125 3124 3123 3120 3118 3118 3118 3115 3113 3111 3109 3108 3108 3107 3106 3105 3105 3104 3102 3101 3098 3095 3092 3087 3084 3084 3084 3082 3073 3067 3070 3065 3054 3047 3044 3047 3048 3045 3043 3043 3042 3041 3039 3035 3031 3027 3023 3021 3018
3175 3174 3174 3172 3171 3170 3169 3167 3165 3164 3163 3161 3160 3158 3155 3151 3148 3146 3146 3148 3149 3147 3145 3144 3143 3142 3141 3140 3139 3138 3137 3134 3132 3131 3129 3128 3127 3126 3124 3123 3122 3121 3118 3116 3115 3115 3113 3111 3109 3108 3107 3106 3105 3104 3103 3103 3102 3101 3100 3097 3094 3092 3087 3084 3083 3081 3081 3073 3066 3069 3065 3053 3044 3040 3043 3045 3041 3038 3040 3040 3036 3035 3031 3025 3022 3019 3017 3015
3174 3173 3172 3171 3169 3167 3166 3165 3163 3162 3161 3159 3157 3156 3153 3150 3148 3145 3142 3143 3145 3144 3143 3141 3141 3140 3139 3138 3137 3136 3135 3133 3131 3129 3128 3126 3125 3123 3121 3119 3119 3117 3115 3113 3112 3111 3110 3110 3108 3106 3105 3105 3104 3103 3101 3100 3100 3099 3099 3096 3091 3090 3086 3081 3080 3079 3077 3070 3065 3067 3065 3052 3039 3035 3037 3038 3038 3035 3038 3038 3032 3033 3029 3020 3019 3016 3012 3010
3172 3171 3170 3169 3167 3165 3164 3162 3161 3161 3159 3157 3155 3154 3152 3149 3147 3145 3142 3140 3141 3141 3139 3138 3139 3138 3137 3137 3136 3134 3132 3131 3130 3128 3126 3124 3123 3121 3118 3116 3116 3115 3113 3111 3110 3108 3106 3106 3106 3104 3104 3103 3102 3101 3100 3098 3097 3097 3097 3095 3090 3089 3086 3079 3076 3075 3071 3065 3063 3064 3063 3052 3035 3029 3030 3032 3033 3033 3036 3037 3029 3028 3026 3018 3017 3014 3008 3005
3170 3169 3168 3167 3164 3163 3161 3160 3159 3159 3158 3156 3154 3152 3150 3148 3145 3143 3141 3138 3137 3137 3136 3136 3137 3136 3136 3135 3134 3133 3131 3129 3127 3126 3124 3121 3120 3118 3116 3114 3113 3113 3111 3108 3108 3106 3104 3104 3103 3102 3101 3100 3099 3098 3099 3096 3095 3095 3094 3093 3089 3087 3086 3080 3076 3073 3066 3059 3058 3060 3057 3048 3033 3021 3022 3026 3028 3029 3033 3034 3026 3022 3021 3016 3014 3010 3005 3002
3168 3166 3165 3165 3163 3161 3160 3159 3158 3157 3156 3155 3153 3151 3148 3146 3144 3141 3138 3136 3134 3134 3134 3134 3135 3135 3135 3134 3133 3132 3130 3127 3126 3124 3122 3119 3117 3116 3114 3113 3110 3110 3108 3105 3105 3104 3102 3101 3100 3100 3098 3098 3096 3095 3097 3095 3092 3091 3091 3091 3088 3085 3083 3080 3077 3073 3066 3054 3051 3059 3053 3041 3032 3017 3013 3022 3022 3023 3028 3028 3022 3017 3015 3012 3008 3005 3002 3000
3165 3164 3163 3162 3161 3159 3158 3157 3156 3155 3154 3153 3151 3149 3147 3145 3142 3139 3136 3133 3132 3132 3132 3133 3134 3133 3133 3132 3131 3130 3128 3126 3125 3123 3120 3117 3115 3113 3112 3111 3109 3108 3105 3102 3101 3100 3100 3099 3098 3097 3096 3095 3094 3093 3095 3093 3090 3089 3088 3088 3085 3083 3080 3078 3076 3073 3070 3056 3047 3058 3053 3039 3029 3010 3009 3020 3016 3017 3023 3020 3016 3013 3009 3006 3003 3000 2997 2995
3162 3162 3160 3160 3159 3158 3156 3155 3154 3153 3152 3151 3149 3147 3145 3143 3141 3139 3135 3132 3130 3130 3131 3131 3131 3131 3130 3129 3129 3128 3126 3124 3122 3121 3119 3116 3113 3111 3110 3109 3108 3107 3105 3101 3098 3098 3098 3097 3096 3095 3094 3093 3091 3092 3092 3090 3089 3087 3086 3085 3081 3081 3078 3075 3075 3071 3068 3058 3044 3051 3052 3041 3024 3002 3007 3021 3014 3014 3019 3013 3011 3009 3005 3001 2998 2996 2993 2990
3160 3159 3158 3157 3157 3156 3155 3153 3152 3151 3150 3149 3147 3145 3143 3142 3140 3138 3137 3134 3129 3128 3130 3130 3130 3129 3128 3128 3127 3126 3124 3121 3119 3118 3117 3114 3111 3108 3108 3107 3105 3105 3104 3100 3096 3095 3096 3094 3094 3093 3090 3090 3089 3089 3088 3087 3087 3085 3084 3082 3078 3078 3075 3072 3072 3067 3065 3057 3041 3041 3047 3040 3018 2999 3009 3020 3013 3013 3013 3008 3007 3004 3000 2998 2994 2991 2989 2987
3157 3156 3156 3154 3154 3153 3153 3151 3150 3149 3148 3146 3145 3143 3141 3140 3139 3138 3138 3135 3128 3126 3127 3128 3128 3127 3126 3126 3124 3124 3122 3119 3117 3116 3114 3112 3109 3106 3105 3104 3102 3101 3101 3098 3094 3093 3093 3092 3091 3090 3087 3086 3086 3086 3086 3085 3084 3082 3081 3080 3077 3075 3071 3069 3067 3063 3063 3054 3039 3037 3042 3037 3013 2998 3011 3017 3011 3011 3008 3005 3004 2999 2997 2994 2989 2986 2984 2983
3154 3154 3153 3152 3151 3150 3150 3149 3148 3146 3145 3144 3143 3141 3139 3139 3138 3138 3137 3132 3126 3125 3125 3124 3125 3125 3124 3123 3122 3121 3120 3117 3114 3113 3112 3110 3107 3104 3103 3101 3098 3097 3097 3094 3092 3091 3092 3091 3089 3087 3084 3083 3084 3083 3083 3083 3081 3080 3079 3076 3073 3070 3067 3066 3062 3061 3059 3049 3039 3035 3040 3037 3012 2995 3011 3018 3010 3008 3004 3002 3000 2995 2993 2989 2985 2983 2981 2979
3151 3151 3150 3149 3148 3148 3147 3146 3145 3144 3143 3142 3140 3138 3137 3136 3137 3137 3134 3128 3124 3123 3122 3122 3122 3121 3120 3119 3118 3117 3116 3113 3111 3110 3109 3107 3104 3103 3102 3100 3096 3093 3091 3090 3089 3089 3088 3088 3086 3083 3081 3080 3081 3081 3081 3081 3079 3079 3078 3073 3069 3066 3064 3061 3058 3059 3056 3044 3036 3033 3038 3038 3012 2995 3009 3015 3009 3006 3002 2998 2995 2991 2989 2986 2983 2980 2978 2976
3148 3147 3147 3146 3146 3145 3144 3142 3142 3141 3140 3139 3138 3136 3135 3134 3133 3132 3131 3127 3124 3121 3119 3120 3119 3118 3117 3116 3114 3113 3111 3109 3108 3106 3105 3103 3101 3099 3098 3098 3095 3090 3086 3084 3083 3082 3082 3083 3082 3080 3078 3078 3079 3079 3079 3078 3076 3076 3075 3072 3068 3065 3063 3059 3056 3056 3053 3042 3031 3029 3035 3029 3006 3000 3008 3007 3004 3004 3001 2997 2993 2989 2987 2984 2981 2977 2975 2973
3145 3144 3144 3143 3142 3142 3141 3139 3139 3138 3137 3136 3135 3134 3134 3133 3130 3127 3127 3127 3124 3120 3119 3118 3116 3115 3114 3112 3111 3110 3108 3106 3105 3103 3102 3100 3099 3097 3096 3095 3094 3091 3086 3082 3079 3076 3076 3077 3078 3078 3077 3077 3076 3076 3076 3073 3071 3071 3070 3070 3069 3067 3066 3063 3058 3053 3048 3041 3025 3023 3031 3017 2999 3003 3007 3002 3002 3001 2998 2996 2991 2988 2985 2982 2980 2976 2972 2970
3141 3141 3140 3140 3139 3138 3137 3137 3136 3135 3134 3134 3133 3132 3132 3130 3126 3123 3123 3123 3122 3119 3117 3116 3114 3112 3111 3110 3108 3107 3105 3102 3101 3101 3100 3099 3097 3096 3096 3094 3092 3091 3088 3084 3081 3077 3075 3075 3076 3077 3076 3076 3074 3074 3075 3072 3069 3069 3068 3068 3068 3069 3071 3067 3062 3052 3046 3041 3025 3020 3027 3010 2994 3002 3003 2999 3000 2997 2994 2992 2987 2985 2982 2978 2975 2972 2969 2965
3138 3137 3137 3136 3136 3135 3134 3134 3133 3132 3131 3130 3130 3129 3128 3125 3121 3120 3120 3119 3118 3117 3115 3113 3111 3109 3107 3106 3105 3103 3103 3100 3098 3098 3097 3096 3095 3094 3094 3092 3090 3090 3088 3086 3083 3078 3075 3073 3075 3076 3074 3074 3074 3073 3074 3073 3070 3067 3066 3068 3067 3068 3069 3064 3058 3050 3044 3041 3026 3020 3022 3005 2992 2998 2999 2996 2994 2992 2990 2986 2983 2982 2979 2976 2972 2969 2968 2964
3134 3133 3133 3133 3132 3131 3131 3130 3130 3129 3128 3127 3126 3124 3122 3120 3119 3118 3116 3115 3115 3113 3111 3109 3108 3106 3103 3102 3101 3100 3100 3098 3096 3096 3095 3094 3092 3091 3091 3090 3089 3089 3088 3087 3084 3081 3075 3069 3070 3074 3071 3070 3071 3071 3072 3071 3070 3067 3065 3065 3064 3064 3063 3057 3052 3045 3042 3039 3026 3021 3016 2998 2990 2994 2994 2994 2990 2987 2988 2984 2982 2981 2977 2976 2973 2969 2967 2963
3129 3129 3129 3129 3128 3128 3127 3126 3126 3125 3124 3123 3121 3118 3116 3116 3116 3116 3114 3112 3111 3110 3108 3106 3104 3103 3101 3099 3098 3097 3096 3095 3093 3093 3093 3092 3090 3088 3089 3088 3086 3086 3086 3085 3084 3083 3078 3067 3063 3070 3070 3067 3068 3068 3068 3068 3068 3066 3063 3061 3058 3058 3058 3056 3048 3039 3039 3036 3024 3023 3016 2994 2989 2992 2988 2992 2990 2986 2986 2983 2980 2978 2974 2973 2969 2965 2963 2959
3125 3124 3123 3123 3124 3124 3123 3122 3122 3121 3120 3118 3115 3114 3112 3112 3112 3112 3111 3109 3108 3106 3105 3103 3101 3100 3098 3096 3095 3094 3093 3093 3091 3091 3091 3090 3088 3087 3087 3086 3085 3084 3083 3083 3082 3082 3081 3069 3059 3061 3066 3066 3066 3066 3064 3064 3066 3064 3061 3060 3057 3056 3055 3055 3049 3039 3038 3035 3021 3022 3017 2994 2990 2991 2985 2989 2990 2984 2983 2980 2977 2974 2971 2968 2964 2961 2958 2954
3120 3119 3117 3118 3120 3119 3118 3118 3117 3116 3115 3112 3110 3110 3108 3108 3108 3108 3107 3106 3105 3102 3100 3100 3099 3097 3094 3093 3092 3091 3091 3090 3089 3090 3089 3088 3086 3085 3085 3084 3083 3081 3080 3081 3080 3079 3081 3075 3060 3055 3061 3063 3063 3064 3061 3058 3059 3059 3058 3057 3057 3058 3056 3054 3051 3042 3040 3036 3022 3020 3015 2994 2990 2995 2990 2988 2988 2983 2980 2976 2974 2971 2967 2964 2961 2956 2953 2949
3116 3113 3111 3113 3114 3114 3114 3113 3112 3111 3110 3106 3106 3106 3105 3104 3104 3103 3103 3103 3101 3099 3096 3095 3096 3094 3092 3091 3090 3089 3088 3087 3086 3087 3087 3086 3084 3083 3083 3082 3081 3079 3078 3078 3078 3077 3078 3076 3062 3051 3056 3060 3060 3061 3059 3055 3055 3054 3053 3053 3052 3054 3054 3050 3045 3041 3041 3035 3023 3021 3011 2992 2992 2998 2993 2989 2986 2982 2978 2973 2970 2967 2963 2961 2957 2952 2948 2944
3111 3108 3106 3108 3109 3109 3109 3108 3106 3106 3104 3101 3100 3101 3101 3100 3099 3099 3099 3098 3097 3095 3093 3092 3092 3091 3089 3088 3087 3086 3085 3084 3083 3084 3083 3082 3082 3080 3080 3080 3079 3078 3076 3075 3076 3075 3074 3073 3063 3052 3050 3054 3056 3058 3057 3055 3054 3052 3050 3050 3049 3048 3049 3045 3038 3036 3038 3031 3024 3023 3005 2984 2990 2998 2992 2989 2984 2979 2976 2970 2965 2963 2960 2956 2952 2948 2944 2940
3105 3102 3102 3104 3104 3103 3104 3102 3100 3100 3098 3096 3096 3096 3096 3095 3095 3094 3094 3093 3092 3090 3088 3088 3087 3087 3086 3085 3084 3083 3083 3082 3080 3081 3080 3078 3079 3078 3077 3077 3077 3075 3074 3073 3073 3073 3071 3069 3062 3053 3050 3051 3053 3054 3054 3052 3052 3051 3049 3048 3047 3045 3046 3045 3036 3030 3031 3026 3022 3022 3002 2980 2987 2996 2989 2985 2981 2975 2972 2967 2961 2958 2955 2952 2948 2943 2940 2935
3099 3098 3098 3099 3098 3098 3098 3096 3094 3093 3092 3092 3092 3091 3091 3090 3089 3089 3089 3088 3087 3085 3083 3083 3083 3083 3083 3082 3082 3081 3080 3080 3078 3077 3077 3075 3075 3076 3075 3075 3074 3072 3072 3071 3071 3070 3069 3065 3059 3052 3047 3048 3049 3049 3049 3049 3048 3048 3046 3044 3043 3041 3040 3040 3034 3028 3026 3021 3018 3015 2996 2978 2984 2991 2985 2980 2976 2972 2968 2963 2958 2953 2949 2947 2943 2938 2934 2930
3094 3093 3093 3093 3093 3093 3092 3089 3088 3088 3088 3087 3087 3086 3086 3085 3085 3084 3084 3083 3082 3080 3079 3079 3079 3080 3079 3079 3079 3078 3078 3078 3076 3074 3073 3072 3072 3072 3073 3073 3072 3070 3070 3069 3068 3068 3066 3064 3059 3053 3047 3044 3044 3044 3043 3043 3042 3041 3041 3040 3039 3037 3035 3032 3028 3025 3022 3018 3016 3009 2990 2977 2980 2983 2978 2975 2971 2967 2963 2960 2956 2950 2944 2940 2937 2933 2929 2924
3090 3088 3087 3087 3087 3086 3085 3083 3084 3084 3083 3082 3081 3080 3080 3080 3079 3079 3079 3078 3077 3076 3075 3074 3075 3076 3076 3076 3075 3074 3074 3075 3074 3071 3070 3070 3069 3069 3069 3069 3069 3068 3067 3066 3065 3064 3063 3061 3060 3057 3054 3049 3046 3045 3043 3040 3037 3037 3038 3037 3034 3032 3031 3026 3023 3022 3017 3012 3012 3005 2988 2976 2976 2976 2973 2970 2966 2961 2958 2956 2952 2946 2940 2935 2931 2928 2923 2918
3084 3082 3080 3080 3081 3080 3078 3078 3079 3079 3078 3078 3076 3075 3075 3075 3074 3075 3074 3073 3072 3072 3071 3070 3071 3072 3072 3072 3071 3070 3070 3071 3071 3068 3067 3066 3065 3065 3066 3065 3065 3064 3064 3064 3062 3061 3058 3057 3056 3055 3053 3051 3047 3045 3044 3041 3037 3035 3036 3035 3031 3029 3027 3024 3022 3018 3013 3007 3004 3000 2990 2975 2970 2971 2967 2963 2961 2956 2952 2951 2947 2942 2935 2930 2925 2921 2915 2911
3078 3075 3075 3076 3075 3073 3071 3072 3073 3073 3074 3074 3072 3070 3069 3069 3070 3069 3069 3068 3067 3067 3067 3066 3066 3067 3067 3067 3067 3066 3066 3067 3067 3065 3063 3062 3062 3062 3062 3061 3061 3061 3061 3061 3059 3057 3054 3051 3052 3050 3046 3045 3044 3041 3041 3040 3035 3033 3034 3031 3027 3025 3023 3021 3018 3013 3010 3006 2996 2991 2989 2978 2968 2968 2964 2957 2955 2951 2947 2947 2944 2937 2931 2925 2919 2912 2906 2901
3072 3069 3069 3071 3070 3068 3066 3066 3068 3069 3069 3069 3067 3065 3064 3064 3064 3063 3063 3063 3062 3062 3062 3061 3061 3063 3063 3063 3063 3063 3062 3062 3062 3060 3060 3059 3058 3059 3059 3058 3058 3057 3057 3057 3056 3054 3050 3046 3046 3045 3042 3040 3040 3038 3037 3036 3033 3032 3031 3027 3023 3021 3019 3017 3014 3009 3008 3005 2992 2983 2984 2977 2968 2965 2961 2955 2951 2946 2943 2943 2939 2933 2926 2919 2911 2903 2896 2891
3066 3063 3063 3064 3063 3062 3061 3062 3063 3064 3064 3063 3061 3059 3059 3059 3059 3059 3058 3058 3057 3057 3058 3057 3058 3059 3060 3060 3059 3059 3059 3058 3057 3056 3056 3056 3056 3056 3055 3055 3055 3054 3053 3054 3053 3051 3048 3043 3042 3042 3038 3036 3036 3035 3033 3032 3030 3029 3027 3023 3019 3018 3016 3013 3011 3007 3005 3002 2991 2981 2978 2974 2968 2964 2958 2953 2947 2941 2938 2937 2931 2925 2919 2911 2902 2894 2887 2882
3058 3057 3058 3058 3057 3057 3056 3057 3058 3058 3058 3057 3054 3052 3053 3053 3053 3054 3053 3052 3052 3053 3054 3054 3054 3056 3056 3055 3055 3055 3055 3054 3054 3053 3053 3053 3053 3053 3052 3051 3051 3051 3050 3050 3049 3048 3045 3041 3040 3039 3034 3030 3032 3033 3030 3028 3027 3025 3021 3018 3017 3015 3013 3010 3008 3004 3000 2995 2986 2979 2974 2968 2965 2963 2956 2950 2942 2932 2929 2928 2922 2916 2911 2903 2894 2886 2878 2873
3051 3050 3052 3052 3050 3051 3051 3051 3053 3052 3050 3048 3046 3046 3048 3047 3048 3049 3048 3047 3047 3048 3049 3050 3052 3052 3051 3050 3051 3051 3051 3051 3050 3050 3050 3050 3050 3049 3048 3048 3047 3047 3046 3045 3045 3044 3042 3039 3038 3036 3031 3026 3027 3029 3025 3022 3021 3019 3016 3014 3014 3012 3010 3007 3004 3001 2997 2989 2979 2975 2971 2963 2959 2957 2952 2946 2935 2922 2919 2920 2915 2907 2902 2895 2885 2877 2869 2863
3044 3043 3045 3046 3044 3044 3045 3046 3046 3044 3041 3041 3042 3042 3043 3043 3044 3044 3043 3042 3043 3044 3046 3047 3048 3048 3046 3046 3047 3048 3047 3047 3047 3047 3047 3046 3046 3046 3045 3044 3043 3042 3041 3041 3039 3039 3039 3036 3034 3034 3029 3023 3024 3024 3020 3017 3015 3014 3013 3013 3011 3009 3007 3003 2999 2998 2997 2989 2978 2972 2968 2961 2956 2952 2946 2940 2929 2914 2908 2912 2910 2901 2894 2885 2874 2866 2861 2855